Location: Zagreb
(45.8000°N, 16.0000°E)
Time: 23:12:03
(UTC+02:00)

SR - All Passes

Search period start: 09 August 2022 00:00
Search period end: 19 August 2022 00:00
Orbit: 572 x 880 km, 66.7° (Epoch: 08 August)

Date Brightness Start Highest point End Pass type
(mag) Time Alt. Az. Time Alt. Az. Time Alt. Az.
09 Aug - 10:40:36 10° S 10:45:47 43° ESE 10:51:17 10° NE daylight
09 Aug - 12:22:39 10° WSW 12:27:58 39° NW 12:33:30 10° NNE daylight
09 Aug - 14:08:56 10° NW 14:11:46 14° NNW 14:14:38 10° N daylight
09 Aug - 17:37:45 10° N 17:41:27 17° NNE 17:45:05 10° ENE daylight
09 Aug - 19:19:06 10° NNW 19:24:54 56° NE 19:30:21 10° SE daylight
09 Aug - 21:01:50 10° NW 21:06:38 27° WSW 21:11:10 10° SSW visible
10 Aug - 09:51:43 10° SSE 09:56:00 23° ESE 10:00:28 10° ENE daylight
10 Aug - 11:31:59 10° SW 11:37:34 66° NW 11:43:28 10° NNE daylight
10 Aug - 13:16:51 10° WNW 13:20:50 19° NNW 13:24:55 10° NNE daylight
10 Aug - 16:48:05 10° N 16:50:28 12° NNE 16:52:50 10° NE daylight
10 Aug - 18:29:05 10° NNW 18:34:27 34° NE 18:39:32 10° ESE daylight
10 Aug - 20:11:09 10° NW 20:16:47 51° WSW 20:22:03 10° S daylight
11 Aug - 09:04:32 10° ESE 09:06:24 12° E 09:08:18 10° E daylight
11 Aug - 10:41:50 10° SSW 10:47:23 72° ESE 10:53:17 10° NE daylight
11 Aug - 12:25:15 10° W 12:30:05 27° NW 12:35:04 10° NNE daylight
11 Aug - 14:12:51 10° NNW 14:14:19 11° NNW 14:15:46 10° N daylight
11 Aug - 17:39:12 10° NNW 17:43:47 23° NE 17:48:13 10° E daylight
11 Aug - 19:20:50 10° NNW 19:26:44 89° ENE 19:32:14 10° SSE daylight
11 Aug - 21:04:41 10° WNW 21:07:56 16° WSW 21:11:04 10° SW visible
12 Aug - 09:52:17 10° S 09:57:25 39° ESE 10:02:50 10° NE daylight
12 Aug - 11:34:08 10° WSW 11:39:31 42° NW 11:45:08 10° NNE daylight
12 Aug - 13:20:14 10° NW 13:23:15 14° NNW 13:26:18 10° N daylight
12 Aug - 16:49:24 10° N 16:52:57 16° NNE 16:56:25 10° ENE daylight
12 Aug - 18:30:43 10° NNW 18:36:28 52° NE 18:41:51 10° SE daylight
12 Aug - 20:13:20 10° NW 20:18:16 30° WSW 20:22:55 10° SSW daylight
13 Aug - 09:03:32 10° SSE 09:07:39 21° ESE 09:11:56 10° ENE daylight
13 Aug - 10:43:31 10° SW 10:49:08 71° NW 10:55:05 10° NNE daylight
13 Aug - 12:28:12 10° WNW 12:32:20 20° NNW 12:36:33 10° NNE daylight
13 Aug - 15:59:46 10° N 16:01:57 12° NNE 16:04:05 10° NE daylight
13 Aug - 17:40:44 10° NNW 17:45:59 32° NE 17:50:58 10° ESE daylight
13 Aug - 19:22:43 10° NW 19:28:24 55° WSW 19:33:41 10° SSE daylight
14 Aug - 08:16:58 10° ESE 08:18:04 11° E 08:19:12 10° E daylight
14 Aug - 09:53:26 10° SSW 09:58:59 67° ESE 10:04:52 10° NE daylight
14 Aug - 11:36:40 10° W 11:41:36 29° NW 11:46:42 10° NNE daylight
14 Aug - 13:24:03 10° NNW 13:25:46 11° NNW 13:27:30 10° N daylight
14 Aug - 16:50:50 10° NNW 16:55:18 22° NE 16:59:35 10° E daylight
14 Aug - 18:32:25 10° NNW 18:38:19 83° ENE 18:43:48 10° SE daylight
14 Aug - 20:16:04 10° WNW 20:19:35 17° WSW 20:22:58 10° SW daylight
15 Aug - 09:03:58 10° S 09:09:02 37° ESE 09:14:22 10° NE daylight
15 Aug - 10:45:37 10° WSW 10:51:04 45° NW 10:56:45 10° NNE daylight
15 Aug - 12:31:32 10° WNW 12:34:43 15° NNW 12:37:57 10° N daylight
15 Aug - 16:01:04 10° N 16:04:25 15° NNE 16:07:43 10° ENE daylight
15 Aug - 17:42:19 10° NNW 17:48:01 49° NE 17:53:21 10° SE daylight
15 Aug - 19:24:51 10° NW 19:29:53 32° WSW 19:34:38 10° S daylight
16 Aug - 08:15:21 10° SSE 08:19:17 20° ESE 08:23:22 10° ENE daylight
16 Aug - 09:55:04 10° SW 10:00:42 76° WNW 10:06:40 10° NNE daylight
16 Aug - 11:39:34 10° W 11:43:50 21° NW 11:48:11 10° NNE daylight
16 Aug - 15:11:29 10° N 15:13:24 11° NNE 15:15:18 10° NE daylight
16 Aug - 16:52:21 10° NNW 16:57:30 30° NE 17:02:24 10° ESE daylight
16 Aug - 18:34:18 10° NW 18:40:00 59° WSW 18:45:18 10° SSE daylight
17 Aug - 09:05:03 10° SSW 09:10:35 62° ESE 09:16:26 10° NE daylight
17 Aug - 10:48:05 10° WSW 10:53:07 30° NW 10:58:19 10° NNE daylight
17 Aug - 12:35:16 10° NW 12:37:14 12° NNW 12:39:11 10° N daylight
17 Aug - 16:02:29 10° NNW 16:06:48 20° NNE 16:10:57 10° E daylight
17 Aug - 17:44:01 10° NNW 17:49:53 78° NE 17:55:20 10° SE daylight
17 Aug - 19:27:28 10° WNW 19:31:13 18° WSW 19:34:50 10° SW daylight
18 Aug - 08:15:40 10° S 08:20:40 34° ESE 08:25:54 10° NE daylight
18 Aug - 09:57:05 10° WSW 10:02:36 48° NW 10:08:21 10° NNE daylight
18 Aug - 11:42:49 10° WNW 11:46:12 15° NNW 11:49:35 10° N daylight
18 Aug - 15:12:43 10° N 15:15:54 15° NNE 15:19:00 10° ENE daylight
18 Aug - 16:53:56 10° NNW 16:59:34 45° NE 17:04:49 10° ESE daylight
18 Aug - 18:36:22 10° NW 18:41:31 34° WSW 18:46:19 10° S daylight
